Theta_e
295 297 299 303 319 320 318 317 313 307 309 313 310 314 318 322 318 318 320 314 318 320 322 323 322 323 322 324 324 324 324 323 322 321 323 323 321 323
293 295 297 300 305 321 319 317 317 313 308 313 313 313 316 321 317 318 319 312 315 318 319 319 319 320 320 321 321 321 321 321 321 321 323 323 322 323
293 296 298 300 300 321 320 317 316 315 311 313 315 315 314 315 317 319 316 315 316 314 317 317 318 317 317 318 318 319 319 320 320 320 322 323 323 323
291 295 298 301 300 321 320 316 316 316 313 310 314 313 315 315 315 318 318 318 316 313 315 315 316 316 316 316 316 316 316 316 317 318 321 322 322 322
293 295 298 300 300 321 320 317 316 315 315 313 312 314 315 315 313 316 317 318 318 311 314 314 315 316 315 315 314 314 313 313 314 315 316 317 319 320
294 298 300 302 306 320 319 317 317 315 315 313 312 312 313 314 314 312 312 315 316 318 313 313 313 313 314 315 313 310 310 311 313 313 313 312 313 316
295 300 301 303 308 318 319 318 317 315 314 313 311 311 311 311 311 312 311 313 314 316 314 314 314 314 314 312 311 309 309 310 311 312 312 312 311 312
298 300 302 302 309 313 313 313 317 316 312 311 311 310 310 311 313 312 310 309 307 314 312 312 316 314 315 314 312 310 309 310 310 311 311 311 311 310
301 302 304 308 314 317 312 310 310 311 313 314 311 311 310 312 313 311 311 310 309 311 312 309 314 313 315 316 310 309 309 309 310 310 310 310 310 310
303 303 303 316 317 317 316 315 316 316 314 315 314 314 314 314 314 313 312 311 310 309 313 306 311 311 315 315 310 310 310 309 309 309 309 309 309 309
300 310 318 317 312 311 316 315 315 316 310 307 309 309 308 309 312 313 309 308 305 307 312 309 308 310 313 313 315 308 309 309 309 309 309 308 308 307
291 294 297 303 306 309 316 315 312 314 314 311 309 308 308 309 306 313 311 308 306 304 309 309 306 307 305 312 313 314 310 308 309 309 309 308 308 310
286 288 292 296 302 306 310 315 313 314 309 312 312 311 311 312 312 313 313 312 308 305 308 312 307 305 304 303 310 313 310 311 310 309 308 308 307 309
283 285 288 291 293 296 300 301 304 308 313 310 310 310 311 311 312 313 313 313 313 311 311 314 304 308 307 302 303 306 308 310 311 309 310 309 306 307
283 285 286 286 286 287 291 294 295 302 310 309 308 310 311 313 313 312 314 313 313 312 311 313 310 309 308 306 303 303 304 308 310 309 307 308 307 306
280 280 282 283 283 282 281 283 286 289 290 293 304 309 312 311 310 311 310 310 310 310 311 312 313 309 306 308 307 301 305 303 308 310 309 307 309 308
277 277 276 276 276 276 277 278 279 281 282 285 287 290 293 299 308 310 310 309 307 308 307 305 310 311 311 308 305 307 304 303 306 309 308 307 308 309
274 273 273 273 273 274 275 276 277 277 278 280 281 283 285 287 289 290 294 305 306 307 308 308 302 296 294 303 305 306 307 308 309 308 305 306 306 309
271 271 271 272 273 273 274 275 275 276 277 277 278 278 280 281 284 286 288 290 292 302 307 308 306 305 302 301 303 303 308 308 308 302 306 307 307 308
270 270 270 271 272 272 273 274 275 275 275 276 276 277 278 279 279 280 282 284 285 286 287 289 297 304 303 303 299 302 294 310 306 307 306 300 295 292
269 269 270 271 271 272 273 274 274 274 274 274 275 275 276 277 277 278 279 282 283 284 284 286 288 291 289 290 290 290 291 290 298 306 300 295 292 288
269 269 270 270 270 271 271 272 273 273 273 273 273 274 275 276 276 277 278 278 279 280 281 284 286 287 287 288 292 294 288 286 288 289 289 291 289 289
268 269 268 269 269 269 270 271 271 273 272 272 272 273 273 274 275 276 276 277 278 278 279 280 282 285 286 287 288 287 287 286 285 285 285 288 289 289
Wind_Speed
16 17 17 18 19 16 14 17 16 11 14 10 5 6 9 10 11 11 11 15 16 14 13 11 14 14 12 13 13 15 13 15 13 13 11 10 12 12
14 19 20 18 21 16 15 16 14 13 13 12 10 7 12 11 13 13 12 16 17 15 14 13 13 15 14 12 14 14 13 14 13 16 14 13 10 8
19 19 22 24 19 18 16 15 14 13 12 12 13 10 12 14 12 13 10 10 11 17 17 15 14 14 16 14 13 14 15 13 16 18 16 14 13 11
23 23 24 18 23 22 17 20 17 15 12 19 14 12 15 15 13 14 12 11 11 16 18 17 14 15 15 16 15 16 14 16 15 16 16 15 14 13
22 23 22 21 23 20 19 19 16 14 12 11 11 11 13 12 10 12 12 11 10 14 18 18 17 16 16 17 16 15 16 16 16 15 15 14 14 14
23 25 25 25 33 26 21 22 18 16 13 12 12 13 12 14 12 12 10 8 10 9 14 14 16 17 16 17 18 17 17 17 18 17 16 16 15 14
27 24 24 30 38 27 17 19 19 15 13 13 13 11 12 12 14 10 11 9 9 9 8 11 9 10 11 14 13 19 19 20 19 19 18 18 17 16
23 20 21 26 34 35 31 26 23 19 16 12 12 14 16 15 14 13 11 10 8 8 10 9 10 11 11 10 17 17 21 21 20 20 20 20 18 18
18 17 22 20 27 23 25 26 22 21 21 21 19 18 17 18 16 15 14 14 11 8 12 10 10 12 10 11 20 21 21 21 22 21 21 20 20 20
17 26 28 25 23 24 22 21 21 19 19 15 18 18 17 20 21 19 20 18 8 5 14 10 11 12 11 11 18 23 26 24 23 23 23 22 22 21
6 17 19 21 26 28 22 21 20 19 14 14 18 18 16 22 20 12 11 11 7 7 10 6 6 10 10 11 11 22 25 27 26 26 26 24 23 22
15 16 29 9 22 27 22 19 16 15 15 12 5 13 16 18 20 17 14 14 10 6 7 10 6 6 4 9 10 10 11 23 26 26 26 26 24 13
13 13 14 27 7 15 10 15 15 13 9 14 12 9 12 14 13 13 13 13 13 4 8 12 8 5 4 2 7 10 9 9 12 14 23 24 24 22
14 11 15 26 30 22 10 13 8 12 9 10 11 10 10 11 12 13 13 12 12 13 11 17 5 10 10 4 4 3 5 8 9 10 11 14 22 24
14 20 28 31 28 22 27 20 16 5 3 8 10 11 9 9 10 12 12 12 10 8 9 14 10 8 9 9 5 4 5 7 8 10 8 10 11 10
18 17 24 26 29 21 18 17 10 9 9 7 2 2 7 7 9 9 11 10 8 8 8 13 14 9 7 8 8 4 5 6 8 9 10 8 9 10
15 14 15 14 16 15 12 14 12 11 10 8 7 6 6 4 3 6 8 8 11 11 8 4 9 11 9 8 7 8 5 5 6 8 8 9 8 10
15 15 13 14 15 12 13 12 12 15 10 9 8 8 7 6 6 5 4 4 9 10 11 9 6 2 2 6 9 6 8 9 8 10 5 8 9 9
14 13 14 13 12 12 10 11 11 11 10 9 9 8 8 8 6 6 6 5 5 3 8 8 10 12 13 15 4 16 12 9 7 5 8 10 11 10
12 12 12 11 12 11 11 10 10 10 10 9 10 9 8 7 7 8 8 6 4 3 3 3 3 9 13 13 9 8 13 12 8 10 9 3 2 6
11 12 11 10 10 9 9 9 11 9 10 9 9 9 9 8 8 7 7 12 10 5 5 5 4 14 4 3 0 1 3 6 5 11 6 5 4 3
10 10 10 9 10 10 10 10 9 11 10 9 9 9 8 7 7 7 7 6 6 5 5 6 6 5 2 2 4 5 2 0 2 7 8 2 5 6
8 8 8 8 8 8 9 9 9 9 9 9 9 9 8 8 8 7 6 7 6 6 6 7 6 3 3 3 4 2 2 1 0 1 2 13 6 5
Wind_Direction
247 250 245 249 258 190 181 175 172 167 192 187 178 212 178 169 175 178 179 186 189 189 194 200 188 188 189 197 185 178 180 177 185 186 180 182 192 189
243 246 242 252 278 191 187 180 187 171 184 188 191 172 183 172 174 177 184 179 191 192 192 200 188 181 189 183 181 178 180 180 183 193 188 186 190 194
231 241 246 245 260 192 182 181 190 181 175 190 185 183 178 175 177 177 175 184 194 193 192 196 188 185 190 186 185 180 181 187 195 200 198 193 199 201
239 233 236 243 250 201 180 177 187 186 165 173 173 179 184 186 170 175 181 190 190 198 190 184 191 190 192 184 188 186 187 192 202 200 200 199 204 205
243 243 246 255 266 199 178 175 177 175 169 162 169 175 183 175 165 183 180 190 195 187 192 187 189 191 190 186 188 190 190 190 193 197 198 200 203 206
227 231 231 237 257 177 174 174 173 170 168 163 167 173 175 180 178 176 185 182 188 186 201 195 193 194 195 193 191 195 198 197 197 201 203 204 206 208
230 222 224 231 247 176 168 172 168 167 170 164 164 172 174 172 180 177 191 187 190 185 186 201 196 197 209 203 202 201 200 204 203 203 206 207 208 211
228 219 232 242 230 173 173 171 171 168 172 169 166 174 176 175 178 177 182 184 188 192 183 198 192 204 202 204 208 202 205 207 205 207 208 210 211 213
226 228 233 246 178 170 174 171 176 177 173 173 176 181 174 175 172 179 186 188 190 188 184 199 196 215 205 209 204 202 201 206 210 210 209 210 214 216
261 245 262 201 171 168 175 175 183 187 187 182 188 183 179 175 177 179 182 188 189 152 181 205 203 216 210 216 199 206 206 205 207 209 211 212 216 217
212 197 169 161 170 173 174 176 180 190 192 192 174 174 174 179 176 164 176 171 185 192 188 175 193 208 212 214 215 208 207 208 209 211 213 214 216 218
53 52 46 61 158 177 179 177 178 186 183 187 163 177 172 179 174 177 171 178 180 179 187 194 166 153 217 214 208 211 211 211 212 215 217 217 214 220
50 39 44 41 86 155 165 174 176 162 172 181 179 182 181 178 185 188 181 182 185 182 182 183 181 177 193 168 202 207 194 200 215 221 222 218 215 214
41 41 51 50 50 52 69 66 100 160 173 178 186 195 183 181 186 187 185 190 195 189 172 184 173 188 201 188 184 184 198 204 203 214 217 219 223 220
46 46 49 46 41 43 44 49 54 61 180 184 191 197 196 194 177 190 188 186 187 188 167 188 191 184 195 207 190 183 146 210 199 212 208 212 211 209
28 36 45 49 50 37 38 30 32 49 55 20 23 206 188 193 188 181 189 181 186 199 183 188 196 177 192 209 199 183 179 188 198 209 210 216 216 212
36 39 42 36 40 28 28 32 21 24 47 30 26 27 31 16 209 193 195 188 201 197 191 192 203 200 208 185 206 208 191 205 200 202 198 219 209 209
44 40 40 39 43 28 23 30 23 29 11 46 23 36 27 20 13 13 11 204 198 199 200 189 174 137 35 262 214 193 207 212 213 210 200 205 220 217
42 37 40 35 36 36 21 29 26 19 14 22 39 32 27 23 3 33 8 35 9 310 210 190 193 200 215 230 228 209 221 216 220 219 203 213 228 228
39 36 33 32 29 32 26 18 33 18 19 15 32 27 25 29 18 26 10 13 358 343 337 356 263 204 213 222 216 215 204 222 205 223 224 240 347 20
31 36 31 29 30 26 24 20 33 28 27 14 20 16 15 25 19 16 17 11 12 357 348 340 354 330 269 271 341 302 267 228 237 223 209 192 200 188
23 30 25 23 23 21 16 13 20 23 21 21 16 16 10 18 19 10 6 6 357 354 326 316 329 323 295 182 274 271 250 99 90 104 64 94 171 208
26 26 19 20 21 15 14 12 16 17 15 19 14 5 3 13 8 5 1 359 345 350 348 330 334 325 308 279 281 231 213 292 194 197 25 5 310 270